Location: Unspecified
(0.0000°N, 0.0000°E)
Time: 10:07:52
(UTC+00:00)

Vanguard 1 Rocket - Pass Details

Date: 30 November 2022
Orbit: 650 x 4225 km, 34.3° (Epoch: 28 January)

Event Time Altitude Azimuth Distance (km) Brightness Sun altitude
Rises 23:56:55 0° 227° (SW) 6,774 12.0 -68.3°
Reaches altitude 10° 00:02:28 10° 222° (SW) 5,150 11.3 -68.1°
Enters shadow 00:04:35 15° 219° (SW) 4,502 11.0 -68.0°
